SCP
0 0 0 0 0 0 0 0 0 1 1 1 1 1 0 0 0 0 0 0 0 0 0 0 0 0 0 0 0 0 0 0 0 0 0 0 0 0 0 0 0 0 0
0 0 0 0 0 0 0 0 0 0 1 1 1 0 0 0 0 0 0 0 0 0 0 0 0 0 0 0 0 0 0 0 0 0 0 -0 0 0 0 0 0 0 0
0 0 0 0 0 0 0 0 0 0 0 0 0 0 0 0 0 0 0 0 0 0 0 0 0 0 0 0 0 0 0 0 0 0 -0 -0 0 0 0 0 0 0 0
0 0 0 0 0 0 0 0 0 0 0 0 0 0 0 0 0 0 0 0 0 0 0 0 0 0 0 0 0 0 0 0 0 -0 -0 0 0 0 0 0 0 0 0
0 0 0 0 0 0 0 0 0 0 0 0 0 0 0 0 0 0 0 0 0 0 0 0 0 0 0 0 0 0 0 0 0 -0 0 0 0 0 0 0 0 0 0
0 0 0 0 0 0 0 0 0 0 0 0 0 0 0 0 0 0 0 0 0 0 0 0 0 0 0 0 0 0 0 0 0 0 0 0 1 1 1 0 0 0 0
0 0 0 0 0 0 0 0 0 0 0 0 0 0 0 0 0 0 0 0 0 0 0 0 0 0 0 0 0 0 0 0 0 0 0 0 1 1 1 0 0 0 0
0 0 0 0 0 0 0 0 0 0 0 0 0 0 0 0 0 0 0 0 0 0 0 0 0 0 0 0 0 0 0 0 0 0 0 0 0 0 0 0 0 0 1
0 0 0 0 0 0 0 0 0 0 0 0 0 0 0 0 0 0 0 0 0 0 0 0 0 0 0 0 0 0 0 0 0 0 0 0 0 0 0 0 0 0 0
0 0 0 0 0 0 0 0 0 0 0 0 0 0 0 0 0 0 0 0 0 0 0 0 0 0 0 0 0 0 0 0 0 0 0 0 0 0 0 0 0 0 0
0 0 0 0 0 0 0 0 0 0 0 0 0 0 0 0 0 0 0 0 0 0 0 0 0 0 0 0 0 0 0 0 0 0 0 0 0 0 0 0 0 0 0
0 0 0 0 0 0 0 0 0 0 0 0 0 0 0 0 0 0 0 0 0 0 0 0 0 0 0 0 0 0 0 0 0 0 0 0 0 0 0 0 0 0 0
0 0 0 0 0 0 0 0 0 0 0 0 0 0 0 0 0 0 0 0 0 0 0 0 0 0 0 0 0 0 0 0 0 0 0 0 0 0 0 0 0 1 1
0 0 0 0 0 0 0 0 0 0 0 0 0 0 0 0 0 0 0 0 0 0 0 0 0 0 0 0 0 0 0 0 0 0 0 0 0 0 0 0 1 1 1
0 0 0 0 0 0 0 0 0 0 0 0 0 0 0 0 0 0 0 0 0 0 0 0 0 0 0 0 0 0 0 0 0 0 0 0 0 0 0 0 0 1 1
0 0 0 0 0 0 0 0 0 0 0 0 0 0 0 0 0 0 0 0 0 0 0 0 0 0 0 0 0 0 0 0 0 0 0 0 0 0 0 0 0 0 0
1 0 0 0 0 0 0 0 0 0 0 0 0 0 0 0 0 0 0 0 0 0 0 0 0 0 0 0 0 0 0 0 0 0 0 0 0 0 0 0 0 0 0
1 1 1 1 1 1 1 1 0 0 0 0 0 0 0 0 0 0 0 0 0 0 0 0 0 0 0 0 0 0 0 0 0 0 0 0 0 0 0 0 0 0 0
2 1 1 1 1 1 1 1 1 0 0 0 0 0 0 0 0 0 0 0 0 0 0 0 0 0 0 0 0 0 0 0 0 0 0 0 0 0 0 0 0 0 0
3 2 2 2 2 1 1 1 0 0 0 0 0 0 0 0 0 0 0 0 0 0 0 0 0 0 0 0 0 0 0 0 0 0 0 0 0 0 0 0 0 0 0
3 3 3 2 2 1 1 1 0 0 0 0 0 0 0 0 0 0 0 0 0 0 0 0 0 0 0 0 0 0 0 0 0 0 0 0 0 0 0 0 0 0 0
4 3 3 2 2 1 1 0 0 0 0 0 0 0 0 0 0 0 0 0 0 0 0 0 0 0 0 0 0 0 0 0 0 0 0 0 0 0 0 0 0 0 0
3 2 2 2 1 1 0 0 0 0 0 0 0 0 0 0 0 0 0 0 0 0 0 0 0 0 0 0 0 0 0 0 0 0 0 0 0 0 0 0 0 0 0
2 2 1 1 1 1 0 0 0 0 0 0 0 0 0 0 0 0 0 0 0 0 0 0 0 0 0 0 0 0 0 0 0 0 0 0 0 0 0 0 0 0 0
1 1 1 1 0 0 0 0 0 0 0 0 0 0 0 0 0 0 0 0 0 0 0 0 0 0 0 0 0 0 0 0 0 0 0 0 0 0 0 0 0 0 0
0 0 0 0 0 0 0 0 0 0 0 0 0 0 0 0 0 0 0 0 0 0 0 0 0 0 0 0 0 0 0 0 0 0 0 0 0 0 0 0 0 0 0
Wind_Speed
10 14 15 13 11 10 9 9 12 13 13 12 12 12 12 11 10 9 8 7 7 7 8 9 9 9 9 9 9 9 8 6 5 4 4 5 5 4 4 4 5 5 10
11 14 15 13 12 11 10 10 12 13 13 12 12 12 11 10 9 8 7 6 6 6 7 8 9 9 9 9 8 7 6 4 3 1 2 6 6 5 4 3 4 6 7
12 14 15 13 12 12 11 10 11 12 12 12 12 11 10 9 8 7 6 5 5 5 6 7 8 8 8 7 6 4 3 2 1 2 6 7 7 7 5 4 3 5 6
12 12 13 15 13 12 12 11 11 12 11 11 10 10 9 8 6 5 4 4 4 5 6 6 6 6 6 5 4 3 2 1 2 5 9 3 3 9 5 4 5 7 7
11 10 13 14 13 13 13 12 12 12 11 10 9 8 7 6 5 4 3 3 4 4 5 5 6 6 5 5 4 2 2 2 4 10 5 1 1 7 4 4 5 7 8
12 11 14 13 14 14 13 13 12 12 11 10 9 8 7 6 5 4 3 4 4 4 5 5 6 6 6 5 4 4 3 3 9 7 1 2 2 6 4 3 3 4 7
11 11 14 12 13 13 13 12 12 11 10 9 8 7 6 5 4 3 3 4 4 4 5 6 6 6 6 6 5 4 3 4 9 2 1 1 6 6 3 2 1 1 4
11 11 13 12 12 12 12 11 10 10 9 8 8 7 6 5 4 3 3 4 4 5 5 6 6 6 6 6 5 5 4 7 5 1 1 2 8 4 3 2 2 1 0
11 11 12 14 13 12 10 10 10 9 8 8 7 6 5 4 4 4 4 5 5 5 6 6 6 6 6 6 6 5 3 5 6 1 1 3 6 3 2 1 2 1 1
10 9 10 11 12 12 12 11 9 9 8 7 6 5 5 5 5 4 5 6 5 5 5 5 5 5 5 5 5 3 2 8 2 2 2 6 5 3 2 2 2 3 3
9 9 9 10 9 9 10 11 10 9 7 7 8 6 6 5 4 5 7 6 5 5 5 5 5 4 3 6 4 1 6 3 1 1 3 7 4 3 3 3 4 4 4
13 11 9 9 10 9 7 8 7 7 8 6 4 5 4 1 0 1 8 6 5 4 5 5 3 5 7 4 6 6 3 3 3 1 5 6 3 2 3 4 4 5 5
13 11 10 9 8 8 7 6 5 4 4 5 4 4 2 2 3 2 3 6 5 5 4 5 6 3 2 2 4 3 3 5 3 2 5 6 4 2 1 3 4 5 6
13 12 10 10 8 7 6 5 5 4 4 3 4 4 3 2 2 1 2 1 2 2 0 3 2 2 3 4 5 6 5 5 4 3 5 6 4 3 2 1 2 3 4
13 12 11 10 9 7 5 4 5 4 4 4 3 3 2 2 2 1 1 1 3 2 3 3 4 3 5 6 5 6 6 6 6 6 2 7 4 3 3 2 2 3 4
12 12 11 11 10 9 7 5 4 4 3 3 2 1 1 2 1 1 1 1 2 2 3 4 3 4 4 5 6 5 7 7 5 6 7 3 6 4 2 3 3 4 5
12 11 11 11 10 9 8 7 5 4 4 3 3 2 2 2 1 1 1 1 2 2 1 3 3 4 4 5 6 6 6 7 7 6 8 7 5 6 4 1 4 6 7
11 11 11 9 11 9 7 5 4 3 4 3 3 4 4 5 3 1 2 3 3 2 3 2 4 5 4 6 6 6 7 6 8 8 9 8 7 6 4 3 5 8 10
10 10 11 10 10 10 9 7 7 6 5 4 4 4 6 6 5 3 3 4 3 3 4 4 4 6 6 6 8 7 8 8 8 9 9 9 9 7 8 5 8 11 12
10 10 10 11 11 10 9 8 7 7 6 6 6 6 7 6 6 4 4 4 4 3 4 4 4 4 5 5 8 9 8 9 8 9 9 9 8 10 10 10 9 9 11
10 11 11 11 11 9 7 7 6 6 6 6 7 7 7 6 6 5 3 4 4 4 4 5 5 6 5 4 7 9 9 11 10 7 8 8 9 10 10 11 10 9 8
11 11 11 11 11 9 7 6 5 6 6 6 6 6 6 6 5 4 4 3 3 2 2 3 4 6 6 5 6 9 10 9 7 6 5 7 9 9 10 11 11 10 10
11 11 10 11 10 11 11 8 8 6 6 5 5 4 5 5 5 4 3 3 2 4 3 4 5 6 7 7 5 7 9 9 10 7 7 8 9 9 10 11 12 11 11
11 10 11 11 10 10 10 9 9 6 5 5 3 4 4 3 3 3 3 4 4 5 4 6 5 6 6 7 5 4 6 8 8 8 8 8 10 11 12 11 12 12 12
12 11 11 11 11 9 8 9 8 7 6 5 4 4 1 3 3 4 4 4 4 4 5 6 5 6 6 6 7 6 7 7 9 10 12 11 11 11 11 11 11 11 12
12 11 11 11 11 10 9 8 8 8 6 5 3 2 1 1 1 2 3 3 4 4 4 4 5 5 5 6 7 7 7 8 8 10 12 12 12 11 12 11 11 11 11
Wind_Direction
150 136 138 148 147 140 131 119 109 106 106 104 104 104 105 106 106 107 106 103 97 91 87 83 80 78 76 74 73 73 74 78 87 103 120 131 139 146 148 150 202 158 106
142 136 139 147 148 144 138 129 118 113 111 108 106 105 106 106 107 108 109 105 100 96 91 87 84 83 82 80 79 78 78 78 75 102 187 183 172 179 190 204 297 75 129
141 137 146 147 147 146 143 136 127 122 119 117 116 115 114 114 113 114 114 111 108 103 97 91 87 86 86 86 85 82 78 70 23 274 250 225 170 170 192 202 189 136 159
143 147 146 143 148 148 147 143 137 133 130 127 125 123 120 118 115 114 115 109 99 93 89 86 83 81 80 79 76 67 49 15 288 261 242 229 171 141 175 189 186 180 179
143 146 133 150 151 151 151 149 146 143 140 137 134 130 126 121 113 107 107 102 93 86 80 79 79 76 71 65 57 36 2 317 266 252 262 263 174 125 165 183 192 195 192
147 149 139 157 154 156 157 154 151 148 145 142 139 134 131 126 119 108 101 96 90 83 80 82 86 82 74 63 50 27 356 302 263 250 306 263 134 113 148 168 191 202 201
148 148 144 158 157 158 159 156 152 149 144 140 138 136 132 126 117 104 94 91 88 84 82 87 91 83 72 61 51 36 9 308 276 290 246 224 76 80 100 107 93 196 210
149 149 136 152 158 160 160 158 152 146 141 137 136 135 131 125 115 103 88 88 92 92 92 93 90 85 78 70 59 47 18 306 256 283 213 108 74 56 55 50 34 24 298
150 150 151 157 160 162 160 157 150 143 137 135 134 133 131 126 117 104 99 94 96 96 96 96 94 89 82 72 61 52 26 310 275 153 162 81 71 33 11 356 328 316 300
154 154 155 157 157 164 162 157 151 145 140 137 138 140 144 158 153 137 150 102 97 98 101 101 98 96 97 89 74 54 299 262 273 195 143 85 50 0 327 314 304 296 290
159 161 167 157 161 165 156 149 160 155 151 166 167 161 206 204 167 166 84 87 94 97 102 103 101 110 162 149 126 227 259 277 147 351 57 60 18 335 318 309 298 290 285
171 174 170 162 165 169 158 154 172 175 162 197 163 173 198 139 134 41 113 108 106 115 134 121 140 199 237 195 161 211 246 275 282 197 83 59 21 331 304 295 287 281 277
170 172 171 168 175 167 163 167 167 167 154 180 172 179 177 207 186 205 177 162 164 186 193 156 208 226 266 320 300 276 302 287 282 270 92 70 41 13 314 286 274 271 268
173 173 170 164 172 180 166 160 171 170 167 172 154 206 186 203 225 218 251 313 232 207 287 272 258 244 273 269 273 281 268 266 280 293 90 87 62 48 38 356 310 290 280
174 172 169 171 165 170 170 180 177 166 166 150 169 174 229 235 232 223 265 301 292 304 254 262 285 296 286 269 273 280 285 288 284 285 161 114 96 72 56 38 9 339 317
174 172 166 173 167 171 174 177 169 164 153 154 156 107 275 295 326 275 239 295 314 320 337 316 315 295 283 301 290 289 287 289 281 285 287 163 142 123 67 21 356 337 322
175 170 168 170 164 173 173 172 164 150 150 133 106 83 51 34 49 315 353 317 5 355 329 300 307 290 288 288 281 283 280 282 290 283 281 282 245 170 155 301 323 316 308
175 167 168 164 159 158 147 141 130 116 112 104 97 86 70 63 58 27 33 37 11 337 329 329 312 306 305 298 298 294 288 278 269 273 272 269 276 283 234 208 287 294 292
171 165 164 154 150 142 130 121 106 98 94 95 89 82 77 69 62 52 46 39 351 351 347 332 347 323 312 311 301 290 284 284 285 274 274 275 275 275 280 260 261 271 276
165 161 153 143 136 132 124 114 108 102 101 92 84 76 74 71 57 46 69 37 357 360 357 3 338 328 316 313 303 296 284 277 274 269 265 263 266 269 276 288 286 269 259
159 154 150 143 137 134 129 129 124 115 111 100 90 82 77 68 62 40 41 49 8 21 3 343 328 308 290 307 295 288 275 259 254 261 264 277 279 283 286 285 281 287 286
158 152 147 144 140 135 123 113 111 114 105 95 91 82 75 71 58 61 37 18 23 341 320 328 322 311 305 299 302 301 293 281 248 255 276 278 287 296 291 288 288 284 280
152 149 144 140 137 131 130 126 130 128 132 126 114 102 83 80 78 63 52 8 346 306 337 327 313 314 314 306 302 306 307 312 329 296 282 282 286 286 288 289 284 280 277
140 133 134 131 132 134 141 145 150 145 135 120 125 108 110 85 60 45 26 7 341 332 338 307 350 313 301 302 306 286 292 311 299 301 294 291 290 285 282 283 284 283 276
134 131 131 130 130 132 133 133 136 127 121 126 122 109 106 90 45 22 8 355 340 326 344 330 320 309 305 306 311 306 299 287 275 277 289 291 287 284 285 285 284 281 279
132 131 133 131 129 130 129 128 121 117 118 117 112 103 239 66 23 25 346 343 321 334 331 314 309 294 309 318 305 303 298 296 297 296 294 291 290 291 292 291 284 276 273